[[{"header":{"parameterUnit":"m.s-1","parameterCategory":1,"la1":30.2991,"la2":30.254,"lo1":-89.0895,"lo2":-89.0444,"dy":0.0017,"dx":0.0017,"nx":28,"ny":28,"refTime":"2025-08-01T21:00:00:Z","depth":0,"parameterNumber":2,"parameterNumberName":"U-component_of_WINDS"},"data":[0,0,0,0,0,0,0,0,0,0,0,0,0,0,0,0,0,0,0,0,0,0,0,0,0,0,0,0,0,0,0,0,0,0,0,0,0,0,0,0,0,0,0,0,0,0,0,0,0,0,0,0,0,0,0,0,0,0,-0.3203,-0.3203,0,-0.3148,-0.3147,-0.3147,-0.3144,-0.3144,-0.3145,-0.3146,-0.3083,-0.3081,-0.3079,0,0,0,0,0,0,0,0,0,0,0,0,0,-0.33,-0.3298,-0.3203,-0.3203,-0.3202,-0.3148,-0.3147,-0.3147,-0.3144,-0.3144,-0.3145,-0.3146,-0.3084,-0.3081,-0.3078,0,0,0,0,0,0,0,0,0,0,0,0,0,-0.3252,-0.3297,-0.3204,-0.3194,-0.3193,-0.3148,-0.3147,-0.3146,-0.3143,-0.3144,-0.3145,-0.3146,-0.3085,-0.3081,-0.3078,-0.3038,0,0,-0.3068,-0.3066,0,0,0,0,0,0,0,0,-0.3255,-0.3249,-0.3196,-0.3195,-0.3193,-0.3154,-0.3159,-0.311,-0.3143,-0.3162,-0.3146,-0.3147,-0.3105,-0.31,-0.3088,-0.3035,-0.3032,-0.3067,-0.3065,-0.3064,-0.3063,0,0,0,0,0,0,0,-0.3258,-0.3251,-0.3181,-0.3195,-0.3193,-0.319,-0.3185,-0.3149,-0.3129,-0.316,-0.316,-0.3154,-0.3105,-0.3091,-0.3086,-0.3031,-0.3067,-0.3064,-0.3062,-0.3061,-0.2939,-0.2938,0,0,0,0,0,0,-0.3264,-0.3254,-0.3183,-0.318,-0.3227,-0.3188,-0.3182,-0.3165,-0.3129,-0.3125,-0.3153,-0.3154,-0.3096,-0.309,-0.3084,-0.3033,-0.3064,-0.3061,-0.3059,-0.294,-0.2939,-0.2938,0,0,0,0,0,0,-0.3266,-0.3258,-0.3185,-0.3217,-0.3207,-0.3185,-0.3167,-0.3164,-0.315,-0.3124,-0.3119,-0.3143,-0.3097,-0.3089,-0.3049,-0.3031,-0.3059,-0.3056,-0.2942,-0.294,-0.2938,-0.2931,0,0,0,0,0,0,-0.3269,-0.3259,-0.3245,-0.3217,-0.3206,-0.3153,-0.3166,-0.3162,-0.3145,-0.3146,-0.3113,-0.3109,-0.3097,-0.3054,-0.3046,-0.3027,-0.3053,-0.2943,-0.2941,-0.2939,-0.2933,-0.2929,-0.2926,0,0,0,0,0,-0.3273,-0.3244,-0.3244,-0.3236,-0.3188,-0.3152,-0.3146,-0.3135,-0.3144,-0.3128,-0.3111,-0.311,-0.3034,-0.305,-0.3041,-0.302,-0.2944,-0.2942,-0.2939,-0.2934,-0.293,-0.2926,0,0,0,0,0,0,-0.327,-0.324,-0.324,-0.3202,-0.318,-0.3152,-0.3132,-0.3131,-0.3104,-0.3105,-0.3091,-0.3083,-0.3043,-0.3028,-0.3046,-0.2978,-0.299,-0.2985,-0.299,-0.2985,-0.2982,-0.2986,-0.3051,0,0,0,0,0,-0.3265,-0.324,-0.3215,-0.3184,-0.3173,-0.3155,-0.3139,-0.3132,-0.3107,-0.3097,-0.3077,-0.3052,-0.3022,-0.3003,-0.2974,-0.2931,-0.2922,-0.2911,-0.2908,-0.2906,-0.2901,-0.2875,-0.2869,-0.2929,-0.2929,-0.2929,0,0,-0.3254,-0.3235,-0.322,-0.3183,-0.3165,-0.3137,-0.3147,-0.3118,-0.3097,-0.3092,-0.3054,-0.3038,-0.3008,-0.2966,-0.2946,-0.2952,-0.2883,-0.2902,-0.29,-0.2897,-0.2872,-0.2866,-0.2861,-0.2927,-0.2927,-0.2928,0,0,-0.322,-0.3204,-0.3176,-0.3158,-0.3131,-0.3119,-0.3112,-0.3084,-0.3073,-0.3035,-0.3031,-0.3004,-0.2954,-0.2933,-0.2915,-0.2872,-0.2869,-0.2862,-0.2845,-0.2819,-0.2815,-0.281,-0.2793,-0.2787,-0.2858,-0.2858,-0.2858,0,-0.321,-0.3171,-0.3161,-0.3132,-0.3115,-0.3111,-0.3081,-0.3063,-0.3027,-0.3014,-0.3021,-0.2957,-0.2937,-0.2889,-0.2878,-0.2865,-0.2854,-0.2866,-0.2816,-0.2812,-0.2808,-0.2791,-0.2785,-0.2858,-0.2858,-0.2858,-0.2858,0,-0.3158,-0.3131,-0.3111,-0.3078,-0.3058,-0.3029,-0.3012,-0.2993,-0.2987,-0.2974,-0.2933,-0.2909,-0.2874,-0.2862,-0.2856,-0.2812,-0.2816,-0.282,-0.2832,-0.2802,-0.2786,-0.2779,-0.2857,-0.2857,-0.2857,-0.2857,0,0,-0.3122,-0.3084,-0.3076,-0.3061,-0.303,-0.3007,-0.2976,-0.2944,-0.2927,-0.2902,-0.2874,-0.2831,-0.2834,-0.2814,-0.2805,-0.2783,-0.2748,-0.2789,-0.2788,-0.2781,-0.2696,-0.2693,-0.2686,-0.2746,-0.2745,-0.2744,-0.2698,0,-0.3084,-0.3031,-0.3021,-0.2974,-0.2947,-0.2942,-0.2915,-0.2892,-0.2878,-0.2851,-0.2834,-0.2804,-0.2811,-0.2798,-0.2776,-0.2757,-0.273,-0.276,-0.2718,-0.2716,-0.2725,-0.2678,-0.2675,-0.2633,-0.2692,-0.2691,-0.269,0,-0.3033,-0.3008,-0.2959,-0.2931,-0.2919,-0.2895,-0.2864,-0.2839,-0.2812,-0.2803,-0.278,-0.2773,-0.2738,-0.2752,-0.2702,-0.2723,-0.2704,-0.2692,-0.269,-0.2685,-0.2701,-0.267,-0.2619,-0.2612,-0.268,-0.2681,-0.2682,0,-0.301,-0.2964,-0.2928,-0.2915,-0.2881,-0.2864,-0.2849,-0.2823,-0.2803,-0.2775,-0.2762,-0.273,-0.2711,-0.2685,-0.2669,-0.2681,-0.2619,-0.2632,-0.2609,-0.2609,-0.2596,-0.2596,-0.254,-0.2585,-0.2585,-0.2586,-0.2586,0,-0.2968,-0.2938,-0.2917,-0.2895,-0.286,-0.2847,-0.2812,-0.2797,-0.2773,-0.2746,-0.2739,-0.2713,-0.2694,-0.2664,-0.2651,-0.261,-0.2602,-0.2592,-0.2589,-0.2592,-0.2594,-0.258,-0.2582,-0.2584,-0.2584,-0.2585,-0.2585,0,-0.2936,-0.2922,-0.2882,-0.2853,-0.2845,-0.2821,-0.2795,-0.2772,-0.2757,-0.2723,-0.2714,-0.269,-0.2655,-0.2636,-0.2592,-0.2583,-0.2537,-0.2536,-0.2547,-0.2545,-0.2522,-0.2524,-0.2454,-0.2443,-0.2497,-0.2497,-0.2496,0,-0.2911,-0.2887,-0.2856,-0.2839,-0.2823,-0.2795,-0.2775,-0.2761,-0.274,-0.2706,-0.2687,-0.2652,-0.2623,-0.2567,-0.2544,-0.251,-0.2507,-0.2484,-0.2501,-0.2505,-0.2504,-0.2506,-0.2502,-0.2481,-0.248,-0.248,-0.248,0,-0.2866,-0.2859,-0.2833,-0.2803,-0.278,-0.2756,-0.2731,-0.2716,-0.2697,-0.2674,-0.2639,-0.2617,-0.2572,-0.2536,-0.25,-0.2481,-0.2476,-0.2475,-0.2467,-0.247,-0.2477,-0.2471,-0.2538,-0.2476,-0.2477,-0.2477,-0.2477,-0.2477,-0.2835,-0.2814,-0.2789,-0.2758,-0.2738,-0.2715,-0.2692,-0.2675,-0.2646,-0.261,-0.2602,-0.2564,-0.2535,-0.2486,-0.2466,-0.2435,-0.2439,-0.2428,-0.2425,-0.2423,-0.2421,-0.2483,-0.2428,-0.2428,-0.2428,-0.2428,-0.2428,0,-0.2789,-0.2773,-0.2745,-0.2711,-0.2687,-0.2687,-0.2659,-0.2638,-0.2605,-0.2579,-0.2551,-0.251,-0.2475,-0.2449,-0.2413,-0.2392,-0.2389,-0.2383,-0.2384,-0.2379,-0.242,-0.243,-0.2386,-0.2386,-0.2386,-0.2386,-0.2386,-0.2386,-0.2762,-0.2726,-0.2716,-0.2668,-0.2651,-0.2615,-0.2599,-0.2577,-0.2556,-0.2511,-0.2482,-0.2466,-0.2439,-0.2401,-0.2368,-0.2361,-0.2347,-0.2341,-0.2334,-0.2372,-0.2377,-0.2381,-0.239,-0.2339,-0.2339,-0.2295,-0.2295,-0.2294]},{"header":{"parameterUnit":"m.s-1","parameterCategory":1,"la1":30.2991,"la2":30.254,"lo1":-89.0895,"lo2":-89.0444,"dy":0.0017,"dx":0.0017,"nx":28,"ny":28,"refTime":"2025-08-01T21:00:00:Z","depth":0,"parameterNumber":3,"parameterNumberName":"V-component_of_WINDS"},"data":[0,0,0,0,0,0,0,0,0,0,0,0,0,0,0,0,0,0,0,0,0,0,0,0,0,0,0,0,0,0,0,0,0,0,0,0,0,0,0,0,0,0,0,0,0,0,0,0,0,0,0,0,0,0,0,0,0,0,-0.8549,-0.8549,0,-0.8525,-0.8525,-0.8525,-0.8526,-0.8527,-0.8527,-0.8527,-0.8501,-0.85,-0.8499,0,0,0,0,0,0,0,0,0,0,0,0,0,-0.8597,-0.8596,-0.8549,-0.8549,-0.8549,-0.8525,-0.8525,-0.8525,-0.8526,-0.8527,-0.8527,-0.8528,-0.8501,-0.85,-0.8499,0,0,0,0,0,0,0,0,0,0,0,0,0,-0.8575,-0.8595,-0.8549,-0.8547,-0.8546,-0.8526,-0.8525,-0.8525,-0.8526,-0.8527,-0.8527,-0.8528,-0.8502,-0.85,-0.8499,-0.8478,0,0,-0.8494,-0.8493,0,0,0,0,0,0,0,0,-0.8576,-0.8573,-0.8547,-0.8547,-0.8546,-0.8529,-0.8532,-0.8509,-0.8526,-0.8534,-0.8527,-0.8528,-0.851,-0.8508,-0.8502,-0.8477,-0.8476,-0.8494,-0.8493,-0.8492,-0.8492,0,0,0,0,0,0,0,-0.8577,-0.8574,-0.854,-0.8547,-0.8546,-0.8547,-0.8544,-0.8528,-0.8519,-0.8533,-0.8533,-0.853,-0.851,-0.8504,-0.8501,-0.8476,-0.8494,-0.8493,-0.8492,-0.8491,-0.8436,-0.8436,0,0,0,0,0,0,-0.858,-0.8575,-0.854,-0.8539,-0.8563,-0.8546,-0.8543,-0.8534,-0.8519,-0.8518,-0.853,-0.8531,-0.8506,-0.8503,-0.8501,-0.8478,-0.8492,-0.8491,-0.849,-0.8437,-0.8436,-0.8436,0,0,0,0,0,0,-0.8581,-0.8576,-0.8541,-0.8557,-0.8553,-0.8544,-0.8535,-0.8534,-0.8527,-0.8517,-0.8515,-0.8525,-0.8506,-0.8503,-0.8485,-0.8477,-0.849,-0.8489,-0.8438,-0.8437,-0.8436,-0.8431,0,0,0,0,0,0,-0.8582,-0.8577,-0.8569,-0.8557,-0.8552,-0.8526,-0.8534,-0.8533,-0.8525,-0.8525,-0.8512,-0.851,-0.8506,-0.8487,-0.8483,-0.8475,-0.8487,-0.8438,-0.8437,-0.8436,-0.8431,-0.843,-0.8428,0,0,0,0,0,-0.8584,-0.8567,-0.8568,-0.8564,-0.8542,-0.8525,-0.8522,-0.8519,-0.8524,-0.8516,-0.851,-0.8511,-0.8478,-0.8485,-0.8481,-0.8472,-0.8439,-0.8437,-0.8436,-0.8432,-0.843,-0.8428,0,0,0,0,0,0,-0.8576,-0.8565,-0.8566,-0.8545,-0.8537,-0.8526,-0.8515,-0.8516,-0.8505,-0.8506,-0.8501,-0.8498,-0.8481,-0.8475,-0.8482,-0.8453,-0.8459,-0.8457,-0.8458,-0.8456,-0.8454,-0.8456,-0.8486,0,0,0,0,0,-0.8572,-0.856,-0.8551,-0.8534,-0.8529,-0.8523,-0.8516,-0.8514,-0.8505,-0.8501,-0.8493,-0.8483,-0.8471,-0.8463,-0.8451,-0.8431,-0.8429,-0.8423,-0.8421,-0.842,-0.8418,-0.841,-0.8407,-0.8432,-0.8432,-0.8432,0,0,-0.8563,-0.8556,-0.8548,-0.8532,-0.8525,-0.8513,-0.852,-0.8506,-0.8498,-0.8498,-0.8481,-0.8476,-0.8465,-0.8447,-0.8438,-0.8441,-0.8411,-0.8419,-0.8418,-0.8416,-0.8408,-0.8406,-0.8404,-0.8431,-0.8431,-0.8431,0,0,-0.8542,-0.8535,-0.8521,-0.8514,-0.8504,-0.8501,-0.8498,-0.8487,-0.8484,-0.8468,-0.8469,-0.8459,-0.8437,-0.843,-0.8424,-0.8404,-0.8404,-0.84,-0.8391,-0.8383,-0.8381,-0.8379,-0.8374,-0.8371,-0.8398,-0.8398,-0.8398,0,-0.8532,-0.8515,-0.8513,-0.85,-0.8494,-0.8496,-0.8482,-0.8476,-0.8462,-0.8458,-0.8461,-0.8437,-0.8429,-0.8411,-0.8406,-0.84,-0.8397,-0.8401,-0.8382,-0.838,-0.8378,-0.8373,-0.837,-0.8398,-0.8398,-0.8398,-0.8398,0,-0.8504,-0.8492,-0.8482,-0.8471,-0.8463,-0.845,-0.8447,-0.8439,-0.844,-0.8436,-0.8421,-0.8412,-0.84,-0.8396,-0.8394,-0.8378,-0.838,-0.8383,-0.8389,-0.8376,-0.837,-0.8368,-0.8397,-0.8397,-0.8398,-0.8398,0,0,-0.8475,-0.8465,-0.8462,-0.8458,-0.8448,-0.8439,-0.8427,-0.8417,-0.8411,-0.8402,-0.8393,-0.8377,-0.838,-0.8373,-0.8372,-0.8364,-0.8351,-0.8368,-0.8368,-0.8366,-0.8334,-0.8332,-0.833,-0.8352,-0.8352,-0.8351,-0.8335,0,-0.8453,-0.8432,-0.8432,-0.8413,-0.8403,-0.8406,-0.8396,-0.839,-0.8387,-0.8378,-0.8375,-0.8364,-0.8369,-0.8365,-0.8358,-0.8354,-0.8345,-0.8355,-0.8343,-0.8343,-0.8346,-0.8327,-0.8324,-0.8309,-0.8333,-0.8333,-0.8332,0,-0.8424,-0.8417,-0.8397,-0.8392,-0.8388,-0.8379,-0.8371,-0.8362,-0.8356,-0.8355,-0.8349,-0.8349,-0.8338,-0.8345,-0.833,-0.8338,-0.8333,-0.8331,-0.833,-0.8329,-0.8337,-0.8325,-0.8304,-0.8302,-0.8329,-0.8329,-0.8329,0,-0.8406,-0.8391,-0.8378,-0.8375,-0.8368,-0.8362,-0.8359,-0.8354,-0.8348,-0.8341,-0.8338,-0.8329,-0.8324,-0.8318,-0.8317,-0.8322,-0.8303,-0.8309,-0.8302,-0.8302,-0.8297,-0.8297,-0.8275,-0.8293,-0.8293,-0.8293,-0.8294,0,-0.8382,-0.837,-0.8371,-0.8363,-0.835,-0.8351,-0.8339,-0.8336,-0.8332,-0.8324,-0.8326,-0.8319,-0.8317,-0.831,-0.8309,-0.8298,-0.8295,-0.8294,-0.8294,-0.8294,-0.8295,-0.8291,-0.8292,-0.8293,-0.8293,-0.8293,-0.8293,0,-0.8359,-0.8359,-0.8346,-0.8342,-0.8341,-0.8332,-0.8329,-0.8322,-0.8321,-0.8311,-0.8309,-0.8307,-0.8298,-0.8297,-0.8286,-0.8286,-0.8273,-0.8274,-0.8275,-0.8276,-0.8269,-0.8269,-0.8243,-0.8241,-0.8261,-0.826,-0.826,0,-0.8344,-0.8336,-0.8332,-0.8328,-0.8325,-0.8317,-0.8313,-0.8314,-0.8309,-0.8303,-0.8297,-0.8289,-0.8283,-0.827,-0.8267,-0.826,-0.8261,-0.8253,-0.826,-0.8261,-0.8262,-0.8263,-0.8263,-0.8251,-0.8251,-0.825,-0.825,0,-0.8317,-0.8319,-0.8312,-0.8307,-0.8302,-0.8297,-0.8292,-0.8289,-0.829,-0.8284,-0.8277,-0.8272,-0.8263,-0.8256,-0.825,-0.8247,-0.8249,-0.8249,-0.8247,-0.8246,-0.8248,-0.8248,-0.8272,-0.8249,-0.8249,-0.8249,-0.8249,-0.8249,-0.8299,-0.8292,-0.829,-0.8283,-0.8281,-0.8277,-0.8271,-0.8271,-0.8264,-0.8258,-0.8259,-0.8251,-0.8248,-0.824,-0.8237,-0.8231,-0.8233,-0.823,-0.8229,-0.8229,-0.8229,-0.825,-0.8229,-0.8229,-0.823,-0.823,-0.823,0,-0.8273,-0.8272,-0.8267,-0.8262,-0.8257,-0.8261,-0.8258,-0.8254,-0.8247,-0.8244,-0.8239,-0.8231,-0.8225,-0.8223,-0.8218,-0.8214,-0.8215,-0.8212,-0.8212,-0.8212,-0.8226,-0.8229,-0.8211,-0.8211,-0.8211,-0.8211,-0.8211,-0.8211,-0.8259,-0.8249,-0.8251,-0.824,-0.824,-0.8233,-0.8231,-0.8228,-0.8226,-0.8218,-0.8213,-0.8213,-0.8211,-0.8206,-0.8201,-0.8201,-0.8198,-0.8196,-0.8196,-0.8209,-0.8211,-0.8212,-0.8215,-0.8195,-0.8195,-0.8182,-0.8182,-0.8182]}]]